Change the Weather History Date:

Tuesday, September 25, 2012

  Actual Average Record
Temperature  
Mean Temperature 88 °F -  
Max Temperature 102 °F 96 °F 109 °F (1996)
Min Temperature 75 °F 71 °F 61 °F (2007)
Cooling Degree Days 22    
Growing Degree Days 38 (Base 50)    
Moisture  
Dew Point 43 °F    
Average Humidity 22    
Maximum Humidity 31    
Minimum Humidity 11    
Precipitation  
Precipitation 0.00 in - - ()
Sea Level Pressure  
Sea Level Pressure 29.79 in    
Wind  
Wind Speed 11 mph (WSW)    
Max Wind Speed 22 mph    
Max Gust Speed 26 mph    
Visibility 10 miles    
Events      
Averages and records for this station are not official NWS values.
T = Trace of Precipitation, MM = Missing Value Source: NWS Daily Summary

Daily Weather History Graph

Daily Weather History Graph

Search for Another Location

Airport or City:

Trip Planner

Search our weather history database for the weather conditions in past years. The results will help you decide how hot, cold, wet, or windy it might be!

Date:

Astronomy

Sep. 25, 2012 Rise Set
Actual Time 6:33 AM PDT 6:34 PM PDT
Civil Twilight 6:08 AM PDT 6:59 PM PDT
Nautical Twilight 5:39 AM PDT 7:27 PM PDT
Astronomical Twilight 5:10 AM PDT 7:56 PM PDT
Moon 3:51 PM PDT (9/25) 2:12 AM PDT (9/25)
Length of Visible Light 12h 50m
Length of Day
12h 01m
Waxing Gibbous, 81% of the Moon is Illuminated
Sep 25
Waxing Gibbous
Sep 29
Full
Oct 8
Last Quarter
Oct 15
New
Oct 21
First Quarter

Hourly Weather History & Observations

Time (PDT) Temp. Dew Point Humidity Pressure Visibility Wind Dir Wind Speed Gust Speed Precip Events Conditions
12:56 AM 82.0 °F 46.0 °F 28% 29.83 in 10.0 mi WNW 3.5 mph - N/A   Clear
1:56 AM 82.9 °F 44.1 °F 25% 29.82 in 10.0 mi West 16.1 mph - N/A   Clear
2:56 AM 84.0 °F 43.0 °F 24% 29.81 in 10.0 mi WSW 18.4 mph 25.3 mph N/A   Clear
3:56 AM 82.9 °F 43.0 °F 24% 29.80 in 10.0 mi WSW 16.1 mph - N/A   Clear
4:56 AM 81.0 °F 42.1 °F 25% 29.81 in 10.0 mi WSW 12.7 mph - N/A   Clear
5:56 AM 75.0 °F 42.1 °F 31% 29.82 in 10.0 mi West 9.2 mph - N/A   Clear
6:56 AM 80.1 °F 43.0 °F 27% 29.83 in 10.0 mi WSW 11.5 mph - N/A   Clear
7:56 AM 84.0 °F 44.1 °F 25% 29.84 in 10.0 mi West 13.8 mph - N/A   Clear
8:56 AM 89.1 °F 43.0 °F 20% 29.85 in 10.0 mi West 11.5 mph - N/A   Clear
9:56 AM 91.0 °F 42.1 °F 18% 29.85 in 10.0 mi Variable 4.6 mph - N/A   Clear
10:56 AM 93.9 °F 42.1 °F 17% 29.83 in 10.0 mi WNW 5.8 mph - N/A   Clear
11:56 AM 97.0 °F 42.1 °F 15% 29.81 in 10.0 mi Calm Calm - N/A   Clear
12:56 PM 98.1 °F 41.0 °F 14% 29.78 in 10.0 mi West 5.8 mph - N/A   Clear
1:56 PM 100.0 °F 41.0 °F 13% 29.75 in 10.0 mi Variable 4.6 mph - N/A   Clear
2:56 PM 100.9 °F 37.9 °F 11% 29.74 in 10.0 mi SW 11.5 mph 21.9 mph N/A   Clear
3:56 PM 100.0 °F 39.9 °F 13% 29.73 in 10.0 mi SW 17.3 mph - N/A   Clear
4:56 PM 98.1 °F 42.1 °F 15% 29.72 in 10.0 mi SW 16.1 mph 26.5 mph N/A   Clear
5:56 PM 93.9 °F 43.0 °F 17% 29.73 in 10.0 mi WSW 21.9 mph 25.3 mph N/A   Clear
6:56 PM 90.0 °F 43.0 °F 19% 29.73 in 10.0 mi WSW 16.1 mph - N/A   Clear
7:56 PM 87.1 °F 46.9 °F 25% 29.75 in 10.0 mi WSW 17.3 mph - N/A   Clear
8:56 PM 84.0 °F 48.0 °F 28% 29.77 in 10.0 mi WSW 12.7 mph - N/A   Clear
9:56 PM 82.0 °F 46.0 °F 28% 29.78 in 10.0 mi West 10.4 mph - N/A   Clear
10:56 PM 82.0 °F 46.0 °F 28% 29.78 in 10.0 mi WSW 15.0 mph - N/A   Clear
11:55 PM - - N/A% - - North - - N/A   Unknown
11:56 PM 81.0 °F 46.0 °F 29% 29.78 in 10.0 mi West 15.0 mph - N/A   Clear